Regional Weather Roundup
Issued by NWS

Home | Current Version | Previous Version | Text Only | Print | Product List | Glossary Off
Versions: 1 2 3 4 5 6 7 8 9 10 11 12 13 14 15 16 17 18 19 20 21 22 23 24 25 26 27 28 29 30 31 32 33 34 35 36 37 38 39 40 41 42 43 44 45 46 47 48 49 50

780
ASUS45 KSLC 241410
RWRUT

UTAH REGIONAL WEATHER ROUNDUP
NATIONAL WEATHER SERVICE SALT LAKE CITY UT
800 AM MDT SAT JUN 24 2017

UTZ001>011-023>025-241500-

NORTHERN UTAH

CITY           SKY/WX    TMP DP  RH WIND       PRES   REMARKS
BRIGHAM CITY   SUNNY     58  38  48 NW3       30.21S
HILL AFB       SUNNY     58  36  43 E20       30.23R
LOGAN          SUNNY     58  39  49 CALM      30.26R
OGDEN          SUNNY     64  38  38 S6        30.21R
SALT LAKE CITY SUNNY     68  38  33 SE7       30.20R
WENDOVER         N/A     72  32  23 CALM      30.22R
HEBER CITY     SUNNY     52  34  50 CALM      30.31S

$$

UTZ011>015-024>027-241500-

CENTRAL/NORTHEAST UTAH

CITY           SKY/WX    TMP DP  RH WIND       PRES   REMARKS
PROVO AIRPORT  SUNNY     62  34  35 SE10      30.25R
MOAB/CANYONLAN SUNNY     74  24  15 CALM      30.14R
DELTA          SUNNY     64  23  20 SE3       30.23R
PRICE          SUNNY     67  21  17 S5        30.25R
RICHFIELD      SUNNY     59  32  36 CALM      30.29
ROOSEVELT      SUNNY     61  32  33 CALM      30.29R
VERNAL         SUNNY     68  35  29 E6        30.26R

$$

UTZ013>016-019>022-027-241500-

SOUTHERN UTAH

CITY           SKY/WX    TMP DP  RH WIND       PRES   REMARKS
BRYCE CANYON   SUNNY     60  25  26 N6        30.39R
CEDAR CITY     SUNNY     62  24  23 CALM      30.24R
MILFORD        SUNNY     65  22  19 NE3       30.23R
ST GEORGE      SUNNY     81  29  15 SE6       30.01R
HANKSVILLE     SUNNY     68  23  18 S3        30.17R
KANAB          SUNNY     72  28  20 NW12      30.19R
BLANDING       SUNNY     70  26  19 NE3       30.29S

$$

REGIONAL REPORTS     COLORADO/ARIZONA

CITY           SKY/WX    TMP DP  RH WIND       PRES   REMARKS
CRAIG, CO      SUNNY     52  36  54 CALM      30.35R
GRAND JUNCTION SUNNY     68  34  28 CALM      30.18R
RIFLE, CO      SUNNY     61  32  33 E3        30.26R
MONTROSE, CO   SUNNY     64  30  27 SE8       30.26R
CORTEZ, CO     SUNNY     59  31  34 CALM      30.25R
COLORADO CITY    N/A     66  36  32 CALM      30.17R
PAGE, AZ       SUNNY     80  22  11 E3        30.11R
GRAND CANYON   SUNNY     77  23  13 NE7       30.28R
KINGMAN, AZ    SUNNY     85  40  20 E3        29.99R
FLAGSTAFF, AZ  SUNNY     65  36  34 CALM      30.30R

$$

REGIONAL REPORTS    NEVADA/IDAHO/WYOMING

CITY           SKY/WX    TMP DP  RH WIND       PRES   REMARKS
LAS VEGAS, NV  MOSUNNY   93  19   7 NE10      29.90R
ELY, NY        SUNNY     52  22  30 S8        30.33R
ELKO, NV       MOSUNNY   56  34  43 E3        30.29R
POCATELLO, ID  SUNNY     57  42  57 CALM      30.26R
BURLEY, ID     SUNNY     55  41  59 S3        30.22R
FORT BRIDGER,    N/A     49  32  50 CALM      30.42R
EVANSTON, WY   SUNNY     51  33  50 E12       30.39R
ROCK SPRINGS,  SUNNY     52  30  43 NE7       30.40R
KEMMERER, WY     N/A     52  32  46 N6        30.41R

$$




USA.gov is the U.S. government's official web portal to all federal, state and local government web resources and services.